Weather in Zwiesel

Germany     49°01′08″N   13°13′53″E
temp.,
°C
wind,
m/s
gust,
m/s
humid.,
%
clouds,
%
prec.,
mm/h
press.,
hPa
HPBL,
m
7 march, sun
sun701:00−3ne115321 0.0 103021
04:00−4ne11570 0.0 102821
07:00−4se11520 0.0 102721
10:00+2ssw123420 0.0 1025362
13:00+6sw222829 0.0 1022734
16:00+4wsw223746 0.0 1019751
19:00−2nnw116923 0.0 102021
22:00−3n12630 0.0 102122
8 march, mon
mon801:00−4nne12620 0.0 102121
04:00−4n22770 0.0 102141
07:00−4n228516 0.0 102251
10:00+2ne125498 0.0 1022754
13:00+3nne115392 0.0 10211028
16:00+2ne1264100 0.1 1021838
19:00−2ene118974 0.1 102222
22:00−3ene129276 0.0 102323
9 march, tue
tue901:00−2e119586 0.1 102245
04:00−3ese1195100 0.1 102121
07:00−3se0189100 0.1 102127
10:00+1sw1169100 0.0 1021601
13:00+2wsw2266100 0.1 1020888
16:00+1wnw2476100 0.2 1019639
19:00−2w1198100 0.4 102022
22:00−2sw1199100 0.4 102234
10 march, wed
wed1001:00−2wsw119898 1.1 102261
04:00−2sw1198100 1.1 102197
07:00−1wnw2696100 2.6 1023481
10:00+1w248495 0.3 1023660
13:00+1wnw248594 0.5 1023561
16:00+2w257792 0.1 1022810
19:00−2sse119561 0.2 102222
22:00−1sse129598 0.0 102346
11 march, thu
thu1101:00−2sse249799 0.0 102191
04:00−1sse3593100 0.0 1018181
07:00−1ssw31398100 1.3 1017592
10:00+1ssw41498100 1.7 1015684
13:00+4sw41479100 1.8 1013808
16:00+3s31291100 0.1 1010686
19:00+3ssw2897100 0.9 1011273
22:00+4wnw31199100 7.3 1013824